Orbital Elements at Epoch 2459200.5 (2020-Dec-17.0) TDB
Reference: JPL 23 (heliocentric ecliptic J2000)
Element | Value | Uncertainty (1-sigma) | Units |
e | .04008847431448252 | 5.9079e-08 | |
a | 5.246149619516179 | 1.0169e-07 | au |
q | 5.035839485244272 | 3.1128e-07 | au |
i | 8.947606859022288 | 5.2715e-06 | deg |
node | 71.40468126432749 | 2.9156e-05 | deg |
peri | 352.070902903616 | 7.0578e-05 | deg |
M | 198.3815960016515 | 6.7661e-05 | deg |
tp | 2461170.869827693297 (2026-May-10.36982769) | 0.00085888 | TDB |
period | 4388.937895815597 12.02 | 0.00012761 3.494e-07 | d yr |
n | .08202440056014991 | 2.3849e-09 | deg/d |
Q | 5.456459753788085 | 1.0577e-07 | au |
|
| | Orbit Determination Parameters
Additional Information
|